This is the latest recevied weather packets stored in our database for station/object K4WCH. If no packets are shown the sender has not sent any weather packets the latest 10 day(s).
| Time | Temp. | Humidity | Pressure | Rain* | Wind** | Luminosity | Snow |
|---|---|---|---|---|---|---|---|
| 1787832363 | 22.78° C | 99% | 1017.4 hPa | 0 mm | - | 70 W/m² | - |
| 1787832053 | 22.78° C | 99% | 1017.4 hPa | 0 mm | - | 59 W/m² | - |
| 1787831751 | 22.78° C | 99% | 1017.1 hPa | 0 mm | - | 51 W/m² | - |
| 1787831451 | 22.78° C | 99% | 1017.4 hPa | 0 mm | - | 41 W/m² | - |
| 1787831149 | 22.78° C | 99% | 1017.1 hPa | 0 mm | - | 38 W/m² | - |
| 1787830846 | 22.78° C | 99% | 1017.2 hPa | 0 mm | - | 36 W/m² | - |
| 1787830545 | 22.78° C | 99% | 1017 hPa | 0 mm | - | 32 W/m² | - |
| 1787830245 | 22.22° C | 99% | 1016.9 hPa | 0 mm | - | 30 W/m² | - |
| 1787829940 | 22.22° C | 99% | 1017 hPa | 0 mm | - | 21 W/m² | - |
| 1787829638 | 22.22° C | 99% | 1016.7 hPa | 0 mm | - | 12 W/m² | - |
| 1787829335 | 22.22° C | 99% | 1016.8 hPa | 0 mm | - | 8 W/m² | - |
| 1787829030 | 22.22° C | 99% | 1016.7 hPa | 0 mm | - | 6 W/m² | - |
| 1787828726 | 22.22° C | 99% | 1016.7 hPa | 0 mm | - | 4 W/m² | - |
| 1787828422 | 21.67° C | 99% | 1016.6 hPa | 0 mm | - | 2 W/m² | - |
| 1787828121 | 21.67° C | 99% | 1016.5 hPa | 0 mm | - | 1 W/m² | - |
| 1787827820 | 21.67° C | 99% | 1016.7 hPa | 0 mm | - | 0 W/m² | - |
| 1787827516 | 22.22° C | 99% | 1016.3 hPa | 0 mm | - | 0 W/m² | - |
| 1787827215 | 21.67° C | 99% | 1016.3 hPa | 0 mm | - | 0 W/m² | - |
| 1787826914 | 21.67° C | 99% | 1016.4 hPa | 0 mm | - | 0 W/m² | - |
| 1787826609 | 21.67° C | 99% | 1016.4 hPa | 0 mm | - | 0 W/m² | - |
| 1787826306 | 21.67° C | 99% | 1016.3 hPa | 0 mm | - | 0 W/m² | - |
| 1787826001 | 21.67° C | 99% | 1016.3 hPa | 0 mm | - | 0 W/m² | - |
| 1787825700 | 21.67° C | 99% | 1016.3 hPa | 0 mm | - | 0 W/m² | - |
| 1787825399 | 21.67° C | 99% | 1016.2 hPa | 0 mm | - | 0 W/m² | - |
| 1787825098 | 21.67° C | 99% | 1016.3 hPa | 0 mm | - | 0 W/m² | - |
* Rain latest hour (hover to see other rain measurements)
** Current wind speed in m/s (hover to see current wind gust speed)